Location: Neuvy Saint Sepulchre
(46.5953°N, 1.8122°E)
Time: 11:36:42
(UTC+02:00)

ISS - Pass Details

Date: 25 April 2026
Orbit: 415 x 424 km, 51.6° (Epoch: 14 April)

Event Time Altitude Azimuth Distance (km) Brightness Sun altitude
Exits shadow 06:17:09 - 275° (W) 1,955 -0.9 -5.7°
Reaches altitude 10° 06:18:19 10° 280° (W) 1,499 -1.4 -5.6°
Maximum altitude 06:21:29 37° 350° (N) 670 -2.6 -5.1°
Drops below altitude 10° 06:24:40 10° 60° (ENE) 1,506 1.0 -4.6°
Sets 06:26:52 0° 69° (ENE) 2,373 3.1 -4.2°
